This demonstration page uses our WeatherBlox Daily Observations layout. Learn more.

Left ArrowRight Arrow

Hourly Observations for August 2, 2018

Temp ( °F °C ) Dew Point ( °F °C ) Humidity (%) Winds ( mph kmh ) Pressure ( in mb ) Visibility ( mi km ) Precip ( " mm )
12:15 am 00:15 Mostly Cloudy with Fog 60 15.3 60 15.3 100 100 Calm 30.06 1018 0 0 0.00 0.00
12:35 am 00:35 Mostly Cloudy with Fog 59 14.9 59 14.9 100 100 Calm 30.06 1018 0 0 0.00 0.00
12:55 am 00:55 Mostly Cloudy with Mist and Fog 59 14.9 59 14.9 100 100 Calm 30.06 1018 1 1 0.00 0.00
1:15 am 01:15 Clear with Mist and Fog 58 14.6 58 14.6 100 100 Calm 30.06 1018 3 5 0.00 0.00
1:35 am 01:35 Mostly Cloudy with Fog 58 14.3 58 14.3 100 100 Calm 30.06 1018 1 1 0.00 0.00
1:55 am 01:55 Mostly Cloudy with Fog 58 14.4 58 14.4 100 100 Calm 30.06 1018 1 1 0.00 0.00
2:15 am 02:15 Mostly Cloudy with Mist and Fog 58 14.5 58 14.5 100 100 Calm 30.06 1018 1 1 0.00 0.00
2:35 am 02:35 Clear with Mist and Fog 57 14 57 14 100 100 Calm 30.06 1018 2 3 0.00 0.00
2:55 am 02:55 Mostly Cloudy with Fog 56 13.6 56 13.6 100 100 Calm 30.03 1017 1 1 0.00 0.00
3:15 am 03:15 Mostly Cloudy with Mist and Fog 57 13.7 57 13.7 100 100 Calm 30.03 1017 1 2 0.00 0.00
3:35 am 03:35 Clear with Mist and Fog 58 14.4 58 14.4 100 100 SSW 3 6 30.03 1017 3 4 0.00 0.00
3:55 am 03:55 Clear with Mist and Fog 56 13.4 56 13.4 100 100 Calm 30.03 1017 2 3 0.00 0.00
4:15 am 04:15 Mostly Cloudy with Fog 56 13.5 56 13.5 100 100 Calm 30.06 1018 0 0 0.00 0.00
4:35 am 04:35 Mostly Cloudy with Mist and Fog 56 13.3 56 13.3 100 100 Calm 30.03 1017 1 1 0.00 0.00
4:55 am 04:55 Mostly Cloudy with Mist and Fog 56 13.1 56 13.1 100 100 Calm 30.03 1017 1 2 0.00 0.00
5:15 am 05:15 Mostly Cloudy with Fog 55 12.8 55 12.8 100 100 SW 3 6 30.03 1017 0 0 0.00 0.00
5:35 am 05:35 Mostly Cloudy with Fog 55 13 55 13 100 100 Calm 30.03 1017 0 0 0.00 0.00
5:55 am 05:55 Mostly Cloudy with Mist and Fog 56 13.2 56 13.2 100 100 Calm 30.06 1018 2 3 0.00 0.00
6:15 am 06:15 Mostly Cloudy with Fog 56 13.1 56 13.1 100 100 SSE 3 6 30.06 1018 0 0 0.00 0.00
6:35 am 06:35 Clear with Mist and Fog 56 13.5 56 13.5 100 100 S 3 6 30.06 1018 3 4 0.00 0.00
6:55 am 06:55 Mostly Cloudy with Fog 56 13.5 56 13.5 100 100 Calm 30.06 1018 1 1 0.00 0.00
7:15 am 07:15 Mostly Cloudy with Fog 56 13.3 56 13.3 100 100 Calm 30.06 1018 5 8 0.00 0.00
7:35 am 07:35 Mostly Cloudy with Fog 57 14.1 57 14.1 100 100 Calm 30.06 1018 5 8 0.00 0.00
7:55 am 07:55 Sunny with Mist and Fog 60 15.4 60 15.4 100 100 Calm 30.06 1018 3 5 0.00 0.00
8:15 am 08:15 Sunny with Mist and Fog 62 16.8 62 16.8 100 100 Calm 30.06 1018 4 6 0.00 0.00
8:35 am 08:35 Sunny 64 18 64 18 100 100 Calm 30.06 1018 7 11 0.00 0.00
8:55 am 08:55 Sunny 66 18.8 66 18.8 100 100 Calm 30.06 1018 10 16 0.00 0.00
9:15 am 09:15 Sunny 67 19.5 66 19.1 98 98 SW 6 9 30.06 1018 10 16 0.00 0.00
9:35 am 09:35 Sunny 69 20.6 68 20 96 96 SW 6 9 30.06 1018 10 16 0.00 0.00
9:55 am 09:55 Sunny 71 21.5 67 19.2 87 87 WSW 6 9 30.06 1018 10 16 0.00 0.00
10:15 am 10:15 Sunny 72 22.4 66 19.1 82 82 WSW 7 11 30.03 1017 10 16 0.00 0.00
10:35 am 10:35 Sunny 73 23 66 19.1 79 79 SW 7 11 30.03 1017 10 16 0.00 0.00
10:55 am 10:55 Sunny 74 23.6 67 19.2 76 76 WSW 7 11 30.03 1017 10 16 0.00 0.00
11:15 am 11:15 Sunny 75 23.8 65 18.4 72 72 SW 10 17 30.03 1017 10 16 0.00 0.00
11:35 am 11:35 Sunny 76 24.2 65 18.1 69 69 SW 8 13 30.03 1017 10 16 0.00 0.00
11:55 am 11:55 Sunny 76 24.5 66 18.7 70 70 SW 9 15 30.03 1017 10 16 0.00 0.00
12:15 pm 12:15 Sunny 76 24.6 64 18 67 67 SW 8 13 30.03 1017 10 16 0.00 0.00
12:35 pm 12:35 Sunny 77 24.9 64 17.7 64 64 SW 9 15 30.03 1017 10 16 0.00 0.00
12:55 pm 12:55 Sunny 78 25.5 66 18.7 66 66 WSW 8 13 30.03 1017 10 16 0.00 0.00
1:15 pm 13:15 Sunny 78 25.5 65 18.2 64 64 SSW 6 9 30.03 1017 10 16 0.00 0.00
1:35 pm 13:35 Sunny 78 25.4 64 18 64 64 SW 6 9 30.03 1017 10 16 0.00 0.00
1:55 pm 13:55 Sunny 78 25.6 65 18.2 64 64 SW 6 9 30.03 1017 10 16 0.00 0.00
2:15 pm 14:15 Sunny 79 26 66 18.9 65 65 SW 8 13 30.03 1017 10 16 0.00 0.00
2:35 pm 14:35 Sunny 79 26 65 18.3 63 63 SW 7 11 30.03 1017 10 16 0.00 0.00
2:55 pm 14:55 Sunny 80 26.6 66 18.8 62 62 SSW 7 11 30.03 1017 10 16 0.00 0.00
3:15 pm 15:15 Sunny 80 26.7 64 17.9 59 59 SW 7 11 30.03 1017 10 16 0.00 0.00
3:35 pm 15:35 Sunny 80 26.7 64 17.5 57 57 SW 7 11 30.03 1017 10 16 0.00 0.00
3:55 pm 15:55 Sunny 81 27.1 67 19.3 62 62 S 6 9 30.03 1017 10 16 0.00 0.00
4:15 pm 16:15 Sunny 80 26.9 66 18.9 62 62 S 3 6 30.00 1016 10 16 0.00 0.00
4:35 pm 16:35 Sunny 81 27 65 18.4 59 59 SW 8 13 30.00 1016 10 16 0.00 0.00
4:55 pm 16:55 Sunny 80 26.4 64 18 60 60 SSW 7 11 30.00 1016 10 16 0.00 0.00
5:15 pm 17:15 Sunny 81 27 66 18.8 61 61 SW 7 11 30.00 1016 10 16 0.00 0.00
5:35 pm 17:35 Sunny 81 27 65 18.4 59 59 SW 8 13 30.00 1016 10 16 0.00 0.00
5:55 pm 17:55 Sunny 80 26.7 67 19.2 64 64 SSW 9 15 30.00 1016 10 16 0.00 0.00
6:15 pm 18:15 Partly Cloudy 80 26.5 65 18.3 61 61 SSW 10 17 30.00 1016 10 16 0.00 0.00
6:35 pm 18:35 Sunny 79 26.3 66 18.7 63 63 SW 8 13 30.00 1016 10 16 0.00 0.00
6:55 pm 18:55 Sunny 79 25.9 66 18.8 65 65 SSW 8 13 30.00 1016 10 16 0.00 0.00
7:15 pm 19:15 Sunny 78 25.5 65 18.3 64 64 SW 6 9 30.00 1016 10 16 0.00 0.00
7:35 pm 19:35 Sunny 77 25.2 66 18.9 68 68 SSW 7 11 29.97 1015 10 16 0.00 0.00
7:55 pm 19:55 Sunny 77 25 65 18.5 67 67 SW 5 7 30.00 1016 10 16 0.00 0.00
8:15 pm 20:15 Sunny 75 24 67 19.6 76 76 SSW 5 7 30.00 1016 10 16 0.00 0.00
8:35 pm 20:35 Sunny 73 22.9 66 19.1 79 79 SSW 3 6 30.00 1016 10 16 0.00 0.00
8:55 pm 20:55 Sunny 71 21.5 66 19.1 86 86 S 6 9 30.00 1016 10 16 0.00 0.00
9:15 pm 21:15 Clear 69 20.7 67 19.2 91 91 Calm 30.03 1017 10 16 0.00 0.00
9:35 pm 21:35 Clear 68 20.1 65 18.6 91 91 Calm 30.06 1018 10 16 0.00 0.00
9:55 pm 21:55 Clear 66 19 65 18.5 97 97 Calm 30.06 1018 10 16 0.00 0.00
10:15 pm 22:15 Clear 66 18.8 65 18.5 98 98 SSE 5 7 30.06 1018 10 16 0.00 0.00
10:35 pm 22:35 Clear 65 18.5 65 18.1 98 98 Calm 30.06 1018 10 16 0.00 0.00
10:55 pm 22:55 Clear 65 18.2 64 17.9 98 98 Calm 30.06 1018 10 16 0.00 0.00
11:15 pm 23:15 Clear 65 18.5 65 18.1 98 98 SSW 5 7 30.06 1018 10 16 0.00 0.00
11:35 pm 23:35 Clear 64 17.8 64 17.5 98 98 S 5 7 30.06 1018 10 16 0.00 0.00
11:55 pm 23:55 Clear 65 18.3 64 17.7 96 96 SSW 5 7 30.06 1018 10 16 0.00 0.00

Powered by AerisWeather